Weather History for KGBD - November, 2011

Change the Weather History Date:

Wednesday, November 16, 2011

  Actual Average Record
Temperature  
Mean Temperature 32 °F -  
Max Temperature 37 °F 57 °F 78 °F (1963)
Min Temperature 24 °F 32 °F 6 °F (1955)
Degree Days  
Heating Degree Days 34    
Moisture  
Dew Point 23 °F    
Average Humidity 66    
Maximum Humidity 81    
Minimum Humidity 52    
Precipitation  
Precipitation 0.00 in - - ()
Sea Level Pressure  
Sea Level Pressure 30.23 in    
Wind  
Wind Speed 10 mph (NNE)    
Max Wind Speed 18 mph    
Max Gust Speed 24 mph    
Visibility 10 miles    
Events      
Averages and records for this station are not official NWS values.
T = Trace of Precipitation, MM = Missing Value Source: NWS Daily Summary

Daily Weather History Graph

Daily Weather History Graph

Search for Another Location

Airport or City:

Trip Planner

Search our weather history database for the weather conditions in past years. The results will help you decide how hot, cold, wet, or windy it might be!

Date:

Astronomy

Nov. 16, 2011 Rise Set
Actual Time 7:17 AM CST 5:22 PM CST
Civil Twilight 6:49 AM CST 5:50 PM CST
Nautical Twilight 6:17 AM CST 6:22 PM CST
Astronomical Twilight 5:46 AM CST 6:53 PM CST
Moon 10:37 PM CST (11/16) 11:55 AM CST (11/16)
Length of Visible Light 11h 01m
Length of Day
10h 04m
Waning Gibbous, 70% of the Moon is Illuminated
Nov 16
Waning Gibbous
Nov 18
Last Quarter
Nov 25
New
Dec 2
First Quarter
Dec 10
Full

Hourly Weather History & Observations

Time (CST) Temp. Windchill Dew Point Humidity Pressure Visibility Wind Dir Wind Speed Gust Speed Precip Events Conditions
12:15 AM 33.8 °F 27.0 °F 24.8 °F 70% 30.03 in 10.0 mi NE 8.1 mph - N/A   Clear
12:35 AM 35.6 °F 29.2 °F 24.8 °F 65% 30.04 in 10.0 mi NE 8.1 mph - N/A   Clear
12:55 AM 35.6 °F 29.9 °F 24.8 °F 65% 30.04 in 10.0 mi NE 6.9 mph - N/A   Clear
1:15 AM 35.6 °F 28.6 °F 24.8 °F 65% 30.04 in 10.0 mi NE 9.2 mph - N/A   Clear
1:35 AM 35.6 °F 28.6 °F 23.0 °F 60% 30.04 in 10.0 mi NE 9.2 mph - N/A   Clear
1:55 AM 33.8 °F 27.0 °F 21.2 °F 60% 30.06 in 10.0 mi NE 8.1 mph - N/A   Clear
2:15 AM 33.8 °F 27.0 °F 21.2 °F 60% 30.07 in 10.0 mi NNE 8.1 mph - N/A   Clear
2:35 AM 33.8 °F 25.8 °F 21.2 °F 60% 30.07 in 10.0 mi NE 10.4 mph - N/A   Mostly Cloudy
2:55 AM 33.8 °F 26.4 °F 21.2 °F 60% 30.07 in 10.0 mi NE 9.2 mph - N/A   Scattered Clouds
3:15 AM 33.8 °F 26.4 °F 21.2 °F 60% 30.07 in 10.0 mi NE 9.2 mph - N/A   Clear
3:35 AM 32.0 °F 25.6 °F 21.2 °F 64% 30.07 in 10.0 mi NE 6.9 mph - N/A   Partly Cloudy
3:55 AM 30.2 °F 24.3 °F 21.2 °F 69% 30.08 in 10.0 mi NE 5.8 mph - N/A   Clear
4:35 AM 30.2 °F 24.3 °F 21.2 °F 69% 30.09 in 10.0 mi NNE 5.8 mph - N/A   Clear
4:55 AM 28.4 °F 19.7 °F 19.4 °F 69% 30.11 in 10.0 mi North 9.2 mph - N/A   Scattered Clouds
5:15 AM 30.2 °F 21.9 °F 21.2 °F 69% 30.12 in 10.0 mi North 9.2 mph - N/A   Scattered Clouds
5:35 AM 32.0 °F 23.6 °F 21.2 °F 64% 30.13 in 10.0 mi North 10.4 mph - N/A   Scattered Clouds
5:55 AM 32.0 °F 22.5 °F 21.2 °F 64% 30.13 in 10.0 mi North 12.7 mph - N/A   Mostly Cloudy
6:15 AM 32.0 °F 21.6 °F 21.2 °F 64% 30.13 in 10.0 mi NNE 15.0 mph - N/A   Overcast
6:35 AM 33.8 °F 24.8 °F 19.4 °F 56% 30.15 in 10.0 mi North 12.7 mph - N/A   Overcast
7:35 AM 33.8 °F 25.3 °F 19.4 °F 56% 30.18 in 10.0 mi NNE 11.5 mph - N/A   Overcast
7:55 AM 33.8 °F 24.8 °F 19.4 °F 56% 30.19 in 10.0 mi NNE 12.7 mph - N/A   Partly Cloudy
8:15 AM 33.8 °F 25.3 °F 17.6 °F 52% 30.20 in 10.0 mi NNE 11.5 mph - N/A   Partly Cloudy
8:35 AM 33.8 °F 24.8 °F 17.6 °F 52% 30.23 in 10.0 mi North 12.7 mph - N/A   Mostly Cloudy
8:55 AM 33.8 °F 24.3 °F 17.6 °F 52% 30.25 in 10.0 mi North 13.8 mph - N/A   Mostly Cloudy
9:15 AM 35.6 °F 25.2 °F 19.4 °F 52% 30.27 in 10.0 mi North 18.4 mph - N/A   Overcast
9:35 AM 33.8 °F 23.2 °F 24.8 °F 70% 30.28 in 10.0 mi NNE 17.3 mph - N/A   Overcast
10:15 AM - - - N/A% 30.28 in 10.0 mi NE 16.1 mph - N/A   Overcast
10:35 AM 35.6 °F 25.5 °F 24.8 °F 65% 30.29 in 10.0 mi NE 17.3 mph - N/A   Mostly Cloudy
10:55 AM 35.6 °F 25.2 °F 24.8 °F 65% 30.29 in 10.0 mi NE 18.4 mph - N/A   Mostly Cloudy
11:15 AM 37.4 °F 28.2 °F 24.8 °F 60% 30.30 in 10.0 mi NNE 16.1 mph 24.2 mph N/A   Mostly Cloudy
11:35 AM 37.4 °F 28.9 °F 24.8 °F 60% 30.29 in 10.0 mi North 13.8 mph - N/A   Overcast
11:55 AM 37.4 °F 27.8 °F 24.8 °F 60% 30.30 in 10.0 mi NNE 17.3 mph 20.7 mph N/A   Overcast
12:15 PM 37.4 °F 28.9 °F 24.8 °F 60% 30.30 in 10.0 mi NNE 13.8 mph - N/A   Overcast
12:35 PM 37.4 °F 28.2 °F 23.0 °F 56% 30.31 in 10.0 mi NNE 16.1 mph - N/A   Overcast
12:55 PM 37.4 °F 28.9 °F 23.0 °F 56% 30.32 in 10.0 mi North 13.8 mph - N/A   Overcast
1:15 PM 37.4 °F 28.5 °F 24.8 °F 60% 30.32 in 10.0 mi NNE 15.0 mph - N/A   Overcast
1:35 PM 37.4 °F 28.2 °F 24.8 °F 60% 30.32 in 10.0 mi NNE 16.1 mph 20.7 mph N/A   Overcast
1:55 PM 37.4 °F 28.9 °F 24.8 °F 60% 30.31 in 10.0 mi NE 13.8 mph - N/A   Mostly Cloudy
2:15 PM 37.4 °F 28.9 °F 26.6 °F 65% 30.31 in 10.0 mi NNE 13.8 mph - N/A   Mostly Cloudy
2:35 PM 37.4 °F 29.8 °F 26.6 °F 65% 30.31 in 10.0 mi North 11.5 mph - N/A   Mostly Cloudy
2:55 PM 35.6 °F 26.2 °F 26.6 °F 70% 30.32 in 10.0 mi North 15.0 mph - N/A   Overcast
3:15 PM 33.8 °F 24.8 °F 28.4 °F 81% 30.32 in 10.0 mi North 12.7 mph - N/A   Overcast
3:35 PM 33.8 °F 25.8 °F 26.6 °F 75% 30.34 in 10.0 mi NNE 10.4 mph - N/A   Overcast
3:55 PM 35.6 °F 28.0 °F 26.6 °F 70% 30.34 in 10.0 mi North 10.4 mph - N/A   Overcast
4:15 PM 33.8 °F 25.3 °F 26.6 °F 75% 30.35 in 10.0 mi North 11.5 mph - N/A   Overcast
4:35 PM 35.6 °F 27.1 °F 26.6 °F 70% 30.36 in 10.0 mi North 12.7 mph - N/A   Overcast
5:15 PM 33.8 °F 28.6 °F 26.6 °F 75% 30.35 in 10.0 mi North 5.8 mph - N/A   Overcast
5:35 PM 32.0 °F 28.7 °F 24.8 °F 75% 30.35 in 10.0 mi North 3.5 mph - N/A   Partly Cloudy
5:55 PM 32.0 °F - 24.8 °F 75% 30.35 in 10.0 mi Calm Calm - N/A   Clear
6:35 PM 26.6 °F 19.1 °F 21.2 °F 80% 30.38 in 10.0 mi WSW 6.9 mph - N/A   Clear
6:55 PM 26.6 °F 20.0 °F 21.2 °F 80% 30.39 in 10.0 mi West 5.8 mph - N/A   Clear
7:15 PM 26.6 °F 22.6 °F 21.2 °F 80% 30.39 in 10.0 mi West 3.5 mph - N/A   Mostly Cloudy
7:35 PM 26.6 °F 21.2 °F 21.2 °F 80% 30.39 in 10.0 mi West 4.6 mph - N/A   Partly Cloudy
8:15 PM 26.6 °F 20.0 °F 21.2 °F 80% 30.39 in 10.0 mi West 5.8 mph - N/A   Clear
8:55 PM 24.8 °F 20.5 °F 19.4 °F 80% 30.39 in 10.0 mi WSW 3.5 mph - N/A   Clear
9:15 PM 24.8 °F - 19.4 °F 80% 30.39 in 10.0 mi Calm Calm - N/A   Clear
9:35 PM 24.8 °F - 19.4 °F 80% 30.39 in 10.0 mi Calm Calm - N/A   Clear
9:55 PM 24.8 °F 19.1 °F 19.4 °F 80% 30.39 in 10.0 mi WSW 4.6 mph - N/A   Clear
10:15 PM 23.0 °F 15.8 °F 19.4 °F 86% 30.39 in 10.0 mi WSW 5.8 mph - N/A   Clear
10:35 PM 23.0 °F 14.7 °F 19.4 °F 86% 30.39 in 10.0 mi WSW 6.9 mph - N/A   Clear
10:55 PM 21.2 °F 13.6 °F 19.4 °F 93% 30.40 in 10.0 mi WSW 5.8 mph - N/A   Clear
11:15 PM 21.2 °F 13.6 °F 15.8 °F 80% 30.40 in 10.0 mi West 5.8 mph - N/A   Clear
11:35 PM 24.8 °F 16.9 °F 19.4 °F 80% 30.40 in 10.0 mi WSW 6.9 mph - N/A   Clear